Orbital Elements at Epoch 2459200.5 (2020-Dec-17.0) TDB
Reference: JPL 15 (heliocentric ecliptic J2000)
Element | Value | Uncertainty (1-sigma) | Units |
e | .2443385861751043 | 4.6048e-08 | |
a | 2.373093386768818 | 8.0318e-09 | au |
q | 1.793255103784235 | 1.129e-07 | au |
i | 3.386442957716266 | 4.6444e-06 | deg |
node | 22.47834105984868 | 6.8746e-05 | deg |
peri | 358.0814483783387 | 6.9629e-05 | deg |
M | 98.50390797386963 | 1.0488e-05 | deg |
tp | 2458835.139468469279 (2019-Dec-17.63946847) | 3.7954e-05 | TDB |
period | 1335.274854130161 3.66 | 6.7789e-06 1.856e-08 | d yr |
n | .2696074136994928 | 1.3687e-09 | deg/d |
Q | 2.952931669753401 | 9.9943e-09 | au |
|
| | Orbit Determination Parameters
Additional Information
|